Regional Weather Roundup
Issued by NWS

Home | Current Version | Previous Version | Graphics & Text | Print | Product List | Glossary On
Versions: 1 2 3 4 5 6 7 8 9 10 11 12 13 14 15 16 17 18 19 20 21 22 23 24 25 26 27 28 29 30 31 32 33 34 35 36 37 38 39 40 41 42 43 44 45 46 47 48 49 50
000
ASUS44 KMEG 300200
RWRTN
TENNESSEE HOURLY STATE WEATHER ROUNDUP
NATIONAL WEATHER SERVICE MEMPHIS TN
900 PM CDT SAT AUG 29 2015

TNZ002-004-019-021-049-052-054-088>092-300300-
WEST TENNESSEE

CITY           SKY/WX    TMP DP  RH WIND       PRES   REMARKS
MEMPHIS INTL   MOCLDY    83  68  60 S9        30.01R
NWS MEMPHIS      N/A     78 N/A N/A MISG        N/A
JACKSON        CLOUDY    79  69  71 S5        30.03R
DYERSBURG      CLOUDY   N/A N/A N/A MISG        N/A
PARIS          PTCLDY    73  66  78 E7        30.05R
$$

TNZ008-025-027-028-033-062-065-066-300300-
NORTH MIDDLE TENNESSEE

CITY           SKY/WX    TMP DP  RH WIND       PRES   REMARKS
NASHVILLE      PTCLDY    72  66  81 S8        30.10R
CLARKSVILLE    PTCLDY    78  69  73 VRB7      30.06R
CROSSVILLE     CLOUDY    73  65  75 CALM      30.18R
$$

TNZ061-075-076-078-094-096-097-300300-
SOUTH MIDDLE TENNESSEE

CITY           SKY/WX    TMP DP  RH WIND       PRES   REMARKS
SHELBYVILLE    CLEAR     72  70  94 SE3       30.13S
$$

TNZ017-018-042-046-047-300300-
NORTHEAST TENNESSEE

CITY           SKY/WX    TMP DP  RH WIND       PRES   REMARKS
TRI CITIES     CLOUDY    70  66  87 CALM      30.17R
$$

TNZ012-013-036-069-073-074-300300-
CENTRAL EAST TENNESSEE

CITY           SKY/WX    TMP DP  RH WIND       PRES   REMARKS
KNOXVILLE      CLOUDY    76  67  73 CALM      30.13R
OAK RIDGE      MOCLDY    79  62  56 CALM      30.15R
GATLINBURG     CLEAR     75  63  64 CALM      30.14R
$$

TNZ083-085-099-300300-
SOUTHEAST TENNESSEE

CITY           SKY/WX    TMP DP  RH WIND       PRES   REMARKS
CHATTANOOGA    CLOUDY    76  68  76 S5        30.14R
$$

SKY/WX REPORTED AS FAIR MEANS FEW OR NO CLOUDS BELOW
12 THOUSAND FEET.




USA.gov is the U.S. government's official web portal to all federal, state and local government web resources and services.